www.pogodaiklimat.ru

Погода и климат >> Архив погоды >> Беларусь >> Столбцы


ПОГОДА в Столбцах

  • Прогноз погоды в Столбцах
  • Монитор погоды в Столбцах
  • Климат города

АРХИВ ПОГОДЫ в Столбцах

Время (UTC), дата Ветер
(напр.,м/с)
 
Видим.   Явления Облачность Т
(С)
Тd
(С)
f
(%)
Тe
(С)
Тes
(С)
Комфортность P
(гПа)
Po
(гПа)
Тmin
(С)
Tmax
(С)
R
(мм)
R24
(мм)
S
(см)
06 9.12 Ю 2 1200 м дымка 10/10 150 м
[St]
-0.3 -0.7 97 -4 -4 1002.0 980.7 -0.3 3
09 9.12 Ю 3 800 м туман ?/? -0.3 -0.7 97 -5 -5 1001.3 980.0
12 9.12 Ю 3 1500 м дымка {туман} 10/10 180 м
[St]
+0.4 0.0 97 -4 -4 999.4 978.2
15 9.12 Ю 4 1400 м дымка 10/10 150 м
[St]
+0.6 +0.2 97 -5 -5 998.3 977.1
18 9.12 Ю 3 1500 м слабый дождь 10/10 150 м
[Frnb Ns]
+1.4 +0.5 94 -3 -3 997.1 976.0 +1.5 0.0 2
21 9.12 Ю 3 н/о н/о +1.3 +0.6 95 -3 -3 996.0 972.7
00 10.12 ЮЗ 2 н/о н/о +2.1 +1.5 96 -1 -1 996.0 972.8
03 10.12 ЮЗ 2 н/о н/о +2.4 +1.8 96 -1 -1 997.0 973.8 +1.1
06 10.12 ЮЗ 1 1300 м дымка 10/10 180 м
[St]
+2.5 +2.1 97 +1 +1 997.9 976.9 +1.1 3 1
09 10.12 ЮЗ 1 1300 м дымка {дождь} 10/10 150 м
[St]
+2.9 +2.5 97 +1 +1 999.0 978.0
12 10.12 штиль 0 1800 м дымка {дождь} 10/10 150 м
[St]
+3.3 +2.7 96 +2 +2 999.7 978.7
15 10.12 Ю 1 1700 м дымка 10/10 150 м
[St]
+2.6 +2.0 96 +1 +1 1001.0 979.9
18 10.12 штиль 0 200 м туман ?/? +2.3 +1.7 96 +1 +1 1001.9 980.8 +3.5 0.0 0.10
21 10.12 штиль 0 н/о н/о +1.9 +1.5 97 +1 +1 1003.0 979.6
00 11.12 С 1 н/о н/о +0.1 -0.3 97 -2 -2 1005.0 981.4
03 11.12 СЗ 1 н/о н/о +0.8 +0.4 97 -1 -1 1006.0 982.4 +0.1
06 11.12 С 1 3500 м дымка 10/10 270 м
[St]
+0.9 +0.5 97 -1 -1 1007.6 986.3 +0.1 5 2
09 11.12 С 2 3800 м дымка 10/10 270 м
[St]
+0.9 +0.3 96 -3 -3 1010.0 988.6
12 11.12 С 1 5000 м дымка 10/10 300 м
[St]
+1.1 +0.2 94 -1 -1 1010.9 989.5
15 11.12 штиль 0 5000 м дымка 10/10 300 м
[St]
+1.0 +0.3 95 -0 -0 1012.7 991.3
18 11.12 С 1 1400 м в посл. час дождь со снегом 10/10 150 м
[St]
+0.3 -0.1 97 -2 -2 1014.4 992.9 +1.1 0.0 0.10
21 11.12 штиль 0 н/о н/о +0.1 -0.3 97 -1 -1 1015.0 991.2
00 12.12 штиль 0 н/о н/о 0.0 -0.4 97 -1 -1 1016.0 992.1
03 12.12 штиль 0 н/о н/о +0.2 -0.2 97 -1 -1 1017.0 993.1 0.0
06 12.12 штиль 0 1700 м дымка 10/10 180 м
[St]
+0.3 -0.1 97 -1 -1 1018.0 996.4 0.0 2 1
09 12.12 СВ 1 3400 м дымка 10/10 240 м
[St]
+0.5 -0.1 96 -2 -2 1018.9 997.3
12 12.12 СВ 2 4200 м дымка 9/9 270 м
[St]
+1.1 +0.2 94 -3 -2 1018.8 997.2
15 12.12 СВ 2 4500 м дымка 9/9 270 м
[St]
+0.9 -0.1 93 -3 -3 1019.4 997.8
18 12.12 СВ 2 4200 м дымка 9/9 270 м
[St]
+0.8 -0.1 94 -3 -3 1019.9 998.3 +1.3 0.10
21 12.12 СВ 2 н/о н/о +0.9 -0.7 89 -3 -3 1020.0 996.1
00 13.12 СВ 2 н/о н/о +0.5 -2.5 80 -3 -3 1020.0 996.1
03 13.12 СВ 2 н/о н/о +0.2 -1.9 86 -3 -3 1020.0 996.0 -0.1
06 13.12 В 2 4000 м дымка 10/10 300 м
[St]
-0.1 -3.0 81 -4 -4 1019.8 998.1 -0.3 0
09 13.12 В 2 5000 м дымка 10/10 420 м
[St]
0.0 -3.2 79 -4 -4 1020.2 998.5
12 13.12 СВ 2 5000 м дымка 10/10 300 м
[St]
-0.1 -3.6 77 -4 -4 1020.0 998.3
15 13.12 СВ 2 4400 м слабый снег 10/10 300 м
[Frnb Ns]
-0.6 -2.5 87 -4 -4 1020.8 999.0
18 13.12 СВ 2 5000 м в посл. час снег 10/10 500 м
[St]
-0.8 -1.8 93 -5 -5 1021.2 999.4 0.0 0.4 1
21 13.12 СВ 1 н/о н/о -0.4 -2.3 87 -2 -2 1022.0 997.9
00 14.12 штиль 0 н/о н/о -0.6 -1.9 91 -2 -2 1023.0 998.9
03 14.12 штиль 0 н/о н/о -0.4 -1.7 91 -2 -2 1024.0 999.9 -0.9
06 14.12 штиль 0 4500 м дымка 10/10 330 м
[St]
-0.3 -1.6 91 -2 -2 1024.9 1003.1 -0.9 1
09 14.12 штиль 0 7000 м дымка 10/10 330 м
[St]
0.0 -1.3 91 -1 -1 1026.3 1004.5
12 14.12 штиль 0 8000 м дымка 10/10 330 м
[St]
+0.1 -1.3 90 -1 -1 1026.9 1005.1
15 14.12 штиль 0 5000 м в посл. час снег 10/10 360 м
[St]
-0.2 -1.5 91 -1 -1 1028.0 1006.1
18 14.12 штиль 0 4500 м дымка {снег} 10/10 270 м
[St]
-0.5 -2.4 87 -2 -2 1029.1 1007.2 +0.1 0.2 1
21 14.12 штиль 0 н/о н/о -0.9 -2.3 90 -2 -2 1030.0 1005.7
00 15.12 штиль 0 н/о н/о -1.1 -2.8 88 -2 -2 1030.0 1005.7
03 15.12 штиль 0 н/о н/о -1.2 -2.9 88 -2 -2 1031.0 1006.7 -1.2
06 15.12 штиль 0 4000 м дымка 10 баллов -1.3 -3.2 87 -2 -2 1032.0 1007.6 -1.3 1
09 15.12 штиль 0 5000 м дымка 10 баллов -1.2 -3.7 83 -2 -2 1033.0 1008.6
12 15.12 штиль 0 5000 м дымка 10 баллов -1.4 -4.1 82 -2 -2 1033.0 1008.6
15 15.12 штиль 0 5000 м дымка 10 баллов -1.3 -3.8 83 -2 -2 1033.0 1008.6
18 15.12 ЮВ 2 4800 м дымка 10 баллов -1.3 -3.5 85 -5 -5 1032.0 1007.6 -1.0 1
21 15.12 ЮВ 2 н/о н/о -1.7 -3.4 88 -6 -6 1033.0 1008.6
00 16.12 ЮВ 3 н/о н/о -2.1 -4.6 83 -7 -7 1032.0 1007.5

 

Местоположение метеостанции Столбцы (Минская область, Беларусь): широта 53.48 долгота 26.73 высота над уровнем моря 190 м.

В архиве по умолчанию представлена погода в Столбцах за последнюю неделю. Архивные данные за месяц целиком и за предыдущие месяцы, начиная с января 2011 года, Вы можете получить, выбрав интересующий диапазон дат из раскрывающегося списка и нажав кнопку "Ввод!".


*Определитесь, кто Вы:
робот инопланетянин человек

Внимание! Время в таблицах - всемирное. Для получения местного времени необходимо прибавить поправку, которая в Столбцах равна 3 ч.

Смотрите также архив погоды в соседних городах и на ближайших метеорологических станциях:

Погода в Новогрудке (Гродненская область, Беларусь) (60 км)
Погода в Барановичах (Брестская область, Беларусь) (64 км)
Погода в Воложине (Минская область, Беларусь) (69 км)
Погода в Слуцке (Минская область, Беларусь) (74 км)
Погода в Минске (город Минск, Беларусь) (78 км)
Погода в Ганцевичах (Брестская область, Беларусь) (83 км)
Погода в Марьиной Горке (Минская область, Беларусь) (93 км)
Погода в Лиде (Гродненская область, Беларусь) (104 км)
Погода в Вилейке (Минская область, Беларусь) (116 км)
Погода в Ошмянах (Гродненская область, Беларусь) (118 км)

Пояснения к столбцам:

Ветер - указаны скорость ветра в м/с - средняя за 10 мин, порывы в срок и между сроками (в фигурных скобках) и направление, откуда дует ветер: С - северный, СВ - северо-восточный, В - восточный, ЮВ - юго-восточный, Ю - южный, ЮЗ - юго-западный, З - западный, СЗ - северо-западный.
Видимость - горизонтальная дальность видимости в метрах или километрах. При видимости от 1 до 10 км при отсутствии осадков обычно наблюдается дымка, при ухудшении видимости до 1 км и менее - туман. В сухую погоду видимость может ухудшаться дымом, пылью или мглою.
Явления - указаны атмосферные явления, наблюдавшиеся в срок или в последний час перед сроком; фигурными скобками обозначены явления, наблюдавшиеся между сроками (за 1-3 часа до срока); квадратными скобками обозначены град или гололедные отложения с указанием их диаметра в мм.
Облачность - указаны через наклонную черту общая и нижняя облачность в баллах и высота нижней границы облаков в метрах; квадратными скобками обозначены формы облаков: Ci - перистые, Cs - перисто-слоистые, Cc - перисто-кучевые, Ac - высококучевые, As - высокослоистые, Sc - слоисто-кучевые, Ns - слоисто-дождевые, Cu - кучевые, Cb - кучево-дождевые. Подробнее классификацию облаков см. в Атласе облаков (PDF).
T - Температура воздуха - температура, измеренная на высоте 2 м над землей.
Td - Температура точки росы - температура, при понижении до которой содержащийся в воздухе водяной пар достигнет насыщения.
f - Относительная влажность воздуха - влажноcть воздуха, измеренная на высоте 2 м над землей.
Te - Эффективная температура - температура, которую ощущает одетый по сезону человек в тени. Характеристика душности погоды. При расчете учитывается влияние влажности воздуха и скорости ветра на теплоощущения человека.
Tes - Эффективная температура на солнце - температура, которую ощущает человек, с поправкой на солнечный нагрев. Характеристика знойности погоды. Зависит от высоты солнца над горизонтом, облачности и скорости ветра. Ночью, в пасмурную погоду, а также при ветре 12 м/с и более поправка равна нулю.
P - Атмосферное давление - приведенное к уровню моря атмосферное давление.
Po - Атмосферное давление - измеренное на уровне метеостанции атмосферное давление.
Tmin - Минимальная температура - минимум температуры воздуха на высоте 2 м над землей.
Tmax - Максимальная температура - максимум температуры воздуха на высоте 2 м над землей.
R - Количество осадков - Количество выпавших осадков за период времени, мм. При наведении курсора мыши на число - период времени, за который выпало указанное количество осадков.
R24 - Количество осадков - Количество выпавших осадков за 24 часа, мм.
S - Снежный покров - Высота снежного покрова, см. При наведении курсора мыши на число - состояние снежного покрова и степень покрытия местности в баллах.